[[{"header":{"parameterUnit":"m.s-1","parameterCategory":1,"la1":30.2991,"la2":30.254,"lo1":-89.0895,"lo2":-89.0444,"dy":0.0017,"dx":0.0017,"nx":28,"ny":28,"refTime":"2025-04-25T09:00:00:Z","depth":0,"parameterNumber":2,"parameterNumberName":"U-component_of_WINDS"},"data":[0,0,0,0,0,0,0,0,0,0,0,0,0,0,0,0,0,0,0,0,0,0,0,0,0,0,0,0,0,0,0,0,0,0,0,0,0,0,0,0,0,0,0,0,0,0,0,0,0,0,0,0,0,0,0,0,0,0,1.0874,1.0875,0,1.0966,1.0968,1.0969,1.0984,1.0983,1.0982,1.0981,1.1075,1.1078,1.1082,0,0,0,0,0,0,0,0,0,0,0,0,0,1.071,1.0713,1.0874,1.0875,1.0877,1.0966,1.0968,1.0969,1.0984,1.0983,1.0982,1.0981,1.1074,1.1078,1.1082,0,0,0,0,0,0,0,0,0,0,0,0,0,1.0789,1.0714,1.0874,1.0895,1.0898,1.0966,1.0968,1.0969,1.0984,1.0983,1.0982,1.0981,1.1073,1.1078,1.1082,1.1136,0,0,1.1097,1.1099,0,0,0,0,0,0,0,0,1.0785,1.0795,1.0891,1.0894,1.0897,1.0962,1.0944,1.1025,1.0984,1.0951,1.0981,1.098,1.1039,1.1046,1.1066,1.1141,1.1145,1.1098,1.1101,1.1103,1.1104,0,0,0,0,0,0,0,1.0779,1.0792,1.0911,1.0892,1.0896,1.0899,1.0909,1.0959,1.1,1.0954,1.0955,1.0966,1.104,1.1061,1.1068,1.1146,1.1098,1.1102,1.1105,1.1107,1.1268,1.127,0,0,0,0,0,0,1.077,1.0787,1.0908,1.0913,1.0837,1.0903,1.0914,1.0943,1.1,1.1008,1.0967,1.0966,1.1054,1.1063,1.1072,1.1138,1.1103,1.1107,1.111,1.1267,1.1269,1.127,0,0,0,0,0,0,1.0767,1.0781,1.0904,1.0851,1.0867,1.0907,1.0939,1.0945,1.0966,1.101,1.1017,1.0981,1.1053,1.1065,1.112,1.1141,1.1109,1.1114,1.1265,1.1267,1.1269,1.1271,0,0,0,0,0,0,1.0762,1.078,1.0801,1.0851,1.0869,1.0951,1.094,1.0948,1.0975,1.0975,1.1025,1.1032,1.1053,1.1113,1.1125,1.1147,1.1118,1.1264,1.1266,1.1269,1.1269,1.1272,1.1275,0,0,0,0,0,1.0756,1.0797,1.0802,1.0816,1.0897,1.0952,1.0963,1.0986,1.0976,1.0998,1.1026,1.1031,1.1137,1.1118,1.1132,1.1156,1.1262,1.1265,1.1268,1.1267,1.1272,1.1275,0,0,0,0,0,0,1.0749,1.0804,1.081,1.0869,1.0906,1.0955,1.0982,1.099,1.103,1.1028,1.1055,1.1066,1.112,1.1144,1.1122,1.1211,1.1199,1.1205,1.1193,1.1198,1.1201,1.1194,1.1122,0,0,0,0,0,1.0754,1.0795,1.0841,1.0889,1.0907,1.0941,1.0966,1.0981,1.102,1.1036,1.1068,1.1105,1.1147,1.1174,1.1215,1.1272,1.1283,1.1296,1.1299,1.1302,1.1306,1.1338,1.1344,1.128,1.128,1.128,0,0,1.0765,1.0801,1.0825,1.0888,1.0918,1.0959,1.0954,1.0998,1.1029,1.1042,1.1096,1.1121,1.1164,1.122,1.1247,1.1242,1.1326,1.1306,1.1307,1.1311,1.1342,1.1348,1.1353,1.1282,1.1282,1.1282,0,0,1.0806,1.0838,1.088,1.0911,1.0957,1.0979,1.0989,1.1037,1.1054,1.1108,1.1119,1.1156,1.1227,1.1258,1.1282,1.1334,1.134,1.1347,1.1364,1.1394,1.1399,1.1404,1.1421,1.1428,1.1351,1.1351,1.1352,0,1.0814,1.0877,1.0901,1.0945,1.0972,1.0986,1.1029,1.1057,1.1114,1.1132,1.1126,1.1215,1.1246,1.1309,1.1321,1.1341,1.1353,1.1341,1.1397,1.1402,1.1406,1.1423,1.143,1.1352,1.1352,1.1352,1.1352,0,1.0884,1.0927,1.0956,1.1011,1.1041,1.1084,1.1114,1.1142,1.1154,1.1177,1.1231,1.1268,1.1316,1.1333,1.1345,1.1397,1.1393,1.1391,1.138,1.1412,1.1429,1.1435,1.1353,1.1352,1.1352,1.1352,0,0,1.0923,1.099,1.1,1.1025,1.1076,1.111,1.1153,1.12,1.1223,1.1261,1.1298,1.1358,1.1356,1.1384,1.14,1.1427,1.1464,1.1422,1.1424,1.1428,1.1523,1.1523,1.153,1.1469,1.147,1.1471,1.1519,0,1.097,1.1048,1.107,1.1135,1.1175,1.1189,1.1226,1.1262,1.1284,1.1321,1.1345,1.1387,1.1383,1.14,1.1427,1.1454,1.1484,1.1451,1.1502,1.1503,1.149,1.1539,1.154,1.1583,1.1526,1.1527,1.1528,0,1.1035,1.1074,1.1143,1.1189,1.1206,1.1239,1.1284,1.1319,1.1359,1.1373,1.1404,1.1417,1.1462,1.1448,1.151,1.1487,1.151,1.1526,1.1528,1.1533,1.1517,1.1545,1.1598,1.1604,1.1538,1.1537,1.1537,0,1.1055,1.1126,1.1176,1.1196,1.1251,1.1274,1.1297,1.1336,1.1363,1.1402,1.1419,1.1463,1.1486,1.152,1.1544,1.1532,1.1603,1.1592,1.1616,1.1615,1.163,1.1628,1.1686,1.1645,1.1645,1.1645,1.1645,0,1.1104,1.1146,1.1185,1.1216,1.1263,1.1288,1.1333,1.1358,1.1392,1.1427,1.1442,1.1475,1.1505,1.1542,1.1561,1.1609,1.162,1.1632,1.1636,1.163,1.1628,1.1645,1.1642,1.1647,1.1646,1.1646,1.1646,0,1.1135,1.1163,1.1218,1.1266,1.1278,1.131,1.135,1.138,1.1403,1.1448,1.1459,1.1495,1.1539,1.1567,1.1622,1.1635,1.1687,1.1691,1.1674,1.1676,1.1698,1.1695,1.1767,1.1777,1.1731,1.1731,1.1731,0,1.1164,1.1196,1.1246,1.1271,1.1295,1.1335,1.1362,1.1388,1.1415,1.1463,1.1487,1.1532,1.1569,1.1638,1.1668,1.1711,1.1715,1.1738,1.1722,1.1714,1.1715,1.1712,1.1715,1.174,1.1741,1.1741,1.1741,0,1.1212,1.1224,1.1263,1.1307,1.1338,1.1374,1.1409,1.1429,1.1461,1.1491,1.1536,1.1565,1.1621,1.1665,1.171,1.1734,1.1743,1.1746,1.1754,1.1747,1.1735,1.1741,1.168,1.1744,1.1744,1.1744,1.1743,1.1743,1.1242,1.1271,1.1311,1.1353,1.1382,1.1415,1.1445,1.1472,1.151,1.1558,1.1571,1.1618,1.1656,1.1717,1.1742,1.1778,1.1776,1.1787,1.179,1.1792,1.1791,1.173,1.1787,1.1787,1.1787,1.1787,1.1787,0,1.129,1.1316,1.1355,1.1404,1.1437,1.1443,1.1482,1.1509,1.155,1.1585,1.1621,1.1672,1.1715,1.1749,1.1792,1.1815,1.182,1.1825,1.1823,1.1829,1.1792,1.1781,1.182,1.182,1.182,1.182,1.182,1.182,1.1319,1.1368,1.1385,1.1448,1.1474,1.152,1.1541,1.1571,1.1599,1.1656,1.1691,1.1713,1.1747,1.1793,1.1832,1.1841,1.1856,1.186,1.187,1.1835,1.1831,1.1828,1.1817,1.1864,1.1864,1.1903,1.1904,1.1904]},{"header":{"parameterUnit":"m.s-1","parameterCategory":1,"la1":30.2991,"la2":30.254,"lo1":-89.0895,"lo2":-89.0444,"dy":0.0017,"dx":0.0017,"nx":28,"ny":28,"refTime":"2025-04-25T09:00:00:Z","depth":0,"parameterNumber":3,"parameterNumberName":"V-component_of_WINDS"},"data":[0,0,0,0,0,0,0,0,0,0,0,0,0,0,0,0,0,0,0,0,0,0,0,0,0,0,0,0,0,0,0,0,0,0,0,0,0,0,0,0,0,0,0,0,0,0,0,0,0,0,0,0,0,0,0,0,0,0,2.1319,2.1319,0,2.1314,2.1314,2.1314,2.1276,2.1275,2.1274,2.1273,2.127,2.127,2.1271,0,0,0,0,0,0,0,0,0,0,0,0,0,2.1294,2.1295,2.1319,2.1319,2.1319,2.1314,2.1314,2.1314,2.1276,2.1275,2.1274,2.1273,2.1269,2.127,2.1271,0,0,0,0,0,0,0,0,0,0,0,0,0,2.1299,2.1295,2.1319,2.1299,2.1297,2.1314,2.1314,2.1314,2.1277,2.1275,2.1274,2.1273,2.1269,2.127,2.1271,2.1307,0,0,2.1275,2.1275,0,0,0,0,0,0,0,0,2.1299,2.13,2.1302,2.1301,2.1299,2.1294,2.1304,2.1312,2.1277,2.1285,2.1273,2.1272,2.1279,2.1279,2.1282,2.1307,2.1307,2.1275,2.1276,2.1276,2.1277,0,0,0,0,0,0,0,2.1298,2.13,2.1317,2.1302,2.13,2.1291,2.129,2.1305,2.129,2.1284,2.1281,2.1281,2.1278,2.1281,2.1281,2.1306,2.1275,2.1276,2.1277,2.1277,2.136,2.1361,0,0,0,0,0,0,2.1301,2.13,2.1317,2.1317,2.1295,2.1292,2.1291,2.1297,2.129,2.1287,2.1282,2.1279,2.1279,2.128,2.1281,2.1322,2.1276,2.1277,2.1278,2.1358,2.136,2.1362,0,0,0,0,0,0,2.13,2.1303,2.1317,2.1308,2.1309,2.1294,2.1301,2.1298,2.1301,2.1288,2.1285,2.1288,2.1278,2.1279,2.1301,2.1321,2.1278,2.1279,2.1357,2.1359,2.1361,2.1404,0,0,0,0,0,0,2.13,2.1303,2.1316,2.1308,2.1309,2.1337,2.1302,2.1299,2.1303,2.1299,2.1293,2.1291,2.1277,2.1299,2.1302,2.1322,2.128,2.1355,2.1358,2.136,2.14,2.1407,2.1413,0,0,0,0,0,2.1299,2.1329,2.1317,2.1319,2.1326,2.1338,2.1339,2.1323,2.1304,2.1318,2.131,2.1291,2.1318,2.1301,2.1304,2.1325,2.1353,2.1357,2.136,2.1397,2.1406,2.1413,0,0,0,0,0,0,2.134,2.1327,2.1314,2.1342,2.1342,2.1332,2.1348,2.1332,2.1337,2.1333,2.1313,2.1312,2.1336,2.1333,2.1314,2.1359,2.1332,2.1337,2.136,2.1368,2.1374,2.1374,2.1281,0,0,0,0,0,2.1352,2.1363,2.1352,2.1377,2.1378,2.1363,2.1368,2.1355,2.1354,2.1354,2.1347,2.1347,2.1355,2.1361,2.1368,2.1399,2.1398,2.1415,2.1421,2.1426,2.143,2.1446,2.1454,2.1373,2.1373,2.1373,0,0,2.1378,2.1372,2.138,2.1385,2.1383,2.1395,2.1363,2.1377,2.1386,2.1356,2.1375,2.1371,2.1369,2.1395,2.1406,2.1393,2.1452,2.1431,2.1435,2.1436,2.145,2.1458,2.1465,2.1375,2.1375,2.1374,0,0,2.143,2.1427,2.1448,2.1446,2.1443,2.1433,2.1438,2.1431,2.1427,2.1446,2.1423,2.1433,2.1448,2.1448,2.145,2.1501,2.1483,2.1504,2.1536,2.1552,2.1558,2.1564,2.1582,2.1589,2.1508,2.1508,2.1508,0,2.1462,2.1479,2.1461,2.1476,2.1478,2.1451,2.1472,2.1472,2.1472,2.1474,2.1459,2.1477,2.1474,2.1499,2.1512,2.1514,2.1519,2.1504,2.1559,2.1564,2.1569,2.1586,2.1593,2.151,2.151,2.151,2.1509,0,2.1518,2.153,2.1547,2.1547,2.1552,2.157,2.1554,2.1561,2.1548,2.1539,2.1559,2.1554,2.156,2.1565,2.1552,2.1588,2.158,2.1562,2.1536,2.158,2.1595,2.1601,2.1514,2.1513,2.1512,2.1511,0,0,2.1597,2.1586,2.1592,2.1592,2.1586,2.1595,2.1612,2.1617,2.1623,2.1624,2.1637,2.165,2.1633,2.1635,2.1622,2.1636,2.1676,2.1616,2.1616,2.1627,2.1715,2.1729,2.1737,2.1665,2.1666,2.1667,2.1715,0,2.1647,2.1674,2.1658,2.1688,2.1698,2.1672,2.1687,2.1685,2.1677,2.1685,2.1677,2.1686,2.1664,2.1665,2.1677,2.1669,2.1694,2.1665,2.1677,2.1678,2.1678,2.1745,2.1759,2.1805,2.1721,2.1722,2.1723,0,2.1709,2.1712,2.1743,2.1734,2.1738,2.1752,2.1754,2.1762,2.176,2.1753,2.1755,2.1739,2.1754,2.1728,2.1749,2.173,2.1734,2.173,2.1732,2.1732,2.1703,2.1747,2.1819,2.1826,2.1733,2.1732,2.1731,0,2.1763,2.1774,2.1794,2.1794,2.1785,2.1795,2.1792,2.1788,2.1792,2.1794,2.1796,2.1801,2.1803,2.1807,2.1793,2.1775,2.1816,2.1788,2.1811,2.1811,2.182,2.182,2.1894,2.1823,2.1823,2.1823,2.1823,0,2.1821,2.184,2.1818,2.183,2.1851,2.1832,2.1854,2.1848,2.1844,2.1855,2.1833,2.1843,2.1823,2.1832,2.182,2.1839,2.1841,2.1836,2.1832,2.1838,2.1838,2.184,2.1836,2.1825,2.1824,2.1824,2.1824,0,2.1884,2.187,2.189,2.1879,2.1877,2.1893,2.1884,2.1895,2.1886,2.1899,2.1901,2.1887,2.1896,2.1881,2.1888,2.1881,2.1907,2.1899,2.1908,2.1905,2.1929,2.1926,2.2006,2.2016,2.1939,2.194,2.194,0,2.1922,2.1937,2.1927,2.1933,2.193,2.1939,2.1943,2.1924,2.1929,2.1926,2.1937,2.1944,2.1948,2.1963,2.1954,2.1959,2.1951,2.1978,2.1951,2.1956,2.1951,2.195,2.1951,2.1984,2.1985,2.1985,2.1986,0,2.199,2.1982,2.1988,2.1991,2.1996,2.1997,2.1997,2.2003,2.1983,2.199,2.1998,2.2001,2.2008,2.2015,2.2017,2.2014,2.1997,2.1995,2.2,2.2005,2.201,2.2007,2.1923,2.1993,2.1992,2.1992,2.1991,2.1991,2.2042,2.2053,2.2048,2.2055,2.2053,2.2054,2.2063,2.2054,2.2061,2.2065,2.2053,2.2064,2.206,2.2062,2.2061,2.2069,2.2057,2.2065,2.2067,2.2069,2.2072,2.2009,2.2069,2.2069,2.2069,2.2069,2.2069,0,2.2109,2.2104,2.2111,2.2111,2.2116,2.2099,2.2098,2.2104,2.2113,2.2111,2.2116,2.2125,2.2131,2.2122,2.2126,2.2135,2.2127,2.2137,2.2136,2.2135,2.2083,2.2078,2.2143,2.2143,2.2143,2.2143,2.2143,2.2143,2.2144,2.2162,2.2154,2.217,2.2166,2.2175,2.2176,2.2177,2.2175,2.2186,2.2191,2.2184,2.2179,2.2183,2.2188,2.2185,2.2188,2.22,2.2195,2.2146,2.2139,2.2132,2.2127,2.2201,2.2201,2.2246,2.2246,2.2247]}]]